INNOSAT 3 (RS92S0)

Last updated on Mon Sep 15 2025 00:03:10 GMT+0000 (Coordinated Universal Time)

1 64894U 25155U 25257.15928901 .00015237 00000+0 62941-3 0 9997 2 64894 97.4197 221.7841 0010488 90.3613 269.8826 15.24051386 38656
UTC large
Height (km)
Speed (km/s)
/
Latitude / Longitude
Inclination (degrees)
Orbital Period (minutes)
Azimuth
Elevation
Range (km)
Doppler Factor

Next 0 passes for location: London (51.5072 / 0.1276)

Sorry there are no passes over London.